#timestamp,LO_Frequency,Hit,StdDev 
1607560635.3,286046992.7,P
1607560655.1,286046992.5,P
1607560675.9,286046992.3,P
1607560695.7,286046992.5,Y
1607560715.5,286046996.8,P
1607560735.4,286046996.5,N
1607560755.2,286046996.7,N
1607560775.1,286046997.9,N
1607560776.0,286046997.9,N
1607560795.8,286046995.3,N
1607560815.6,286046991.8,Y
1607560835.5,286046995.0,P
1607560855.3,286046997.6,P
1607560875.1,286046997.7,N
1607560895.9,286046997.9,N
1607560915.7,286046997.9,N
1607560935.6,286046998.4,N
1607560955.4,286047001.2,N
1607560975.2,286046998.1,N
1607560995.1,286046999.4,N
1607560996.0,286046999.4,N
1607561015.8,286046998.8,N
1607561035.6,286046998.3,N
1607561055.5,286046999.1,N
1607561075.3,286046998.7,N
1607561095.2,286046998.1,N
1607561115.9,286046998.3,N
1607561135.7,286047000.7,N
1607561155.6,286047002.6,N
1607561175.4,286047002.0,N
1607561195.2,286047002.5,N
1607561215.1,286047005.2,N
1607561216.0,286047005.2,N
1607561235.8,286047007.3,N
1607561255.7,286047004.9,N
1607561275.5,286047002.9,N
1607561295.3,286047006.0,N
1607561315.2,286047003.5,N
1607561335.0,286047003.4,N
1607561335.9,286047003.4,N
1607561355.8,286047004.3,N
1607561375.6,286047003.1,N
1607561395.4,286047004.8,N
1607561415.3,286047006.2,N
1607561435.1,286047009.6,Y
1607561455.8,286047006.6,P
1607561475.7,286047010.3,P
1607561495.5,286047008.2,N
1607561515.4,286047010.2,Y
1607561535.2,286047002.2,P
1607561555.0,286047002.8,N
1607561555.9,286047002.8,N
1607561575.8,286047002.1,N
1607561595.6,286047001.3,N
1607561615.4,286047002.8,N
1607561635.3,286047001.7,N
1607561655.1,286047004.4,N
1607561675.9,286047007.6,Y
1607561695.7,286047002.8,P
1607561715.5,286047000.2,N
1607561735.4,286047001.2,N
1607561755.2,286047000.1,N
1607561775.0,286047002.1,N
1607561775.9,286047002.1,N
1607561795.8,286046998.6,N
1607561815.6,286046998.9,N
1607561835.5,286047001.0,N
1607561855.3,286047000.6,N
1607561875.1,286047000.3,N
1607561895.9,286047001.0,N
1607561915.7,286047001.1,N
1607561935.5,286047000.2,N
1607561955.4,286046998.2,N
1607561975.2,286046999.3,N
1607561995.1,286047001.0,N
1607561996.0,286047001.0,N
